Weather History for KNPA - February, 2014

Change the Weather History Date:

Saturday, February 15, 2014

  Actual Average Record
Temperature  
Mean Temperature 50 °F -  
Max Temperature 61 °F 63 °F 77 °F (2003)
Min Temperature 39 °F 45 °F 32 °F (1999)
Degree Days  
Heating Degree Days 15    
Moisture  
Dew Point 38 °F    
Average Humidity 67    
Maximum Humidity 97    
Minimum Humidity 32    
Precipitation  
Precipitation 0.00 in - - ()
Sea Level Pressure  
Sea Level Pressure 30.10 in    
Wind  
Wind Speed 7 mph (NNW)    
Max Wind Speed 13 mph    
Max Gust Speed 20 mph    
Visibility 10 miles    
Events      
Averages and records for this station are not official NWS values.
T = Trace of Precipitation, MM = Missing Value Source: NWS Daily Summary

Daily Weather History Graph

Daily Weather History Graph

Search for Another Location

Airport or City:

Trip Planner

Search our weather history database for the weather conditions in past years. The results will help you decide how hot, cold, wet, or windy it might be!

Date:

Astronomy

Feb. 15, 2014 Rise Set
Actual Time 6:29 AM CST 5:37 PM CST
Civil Twilight 6:04 AM CST 6:02 PM CST
Nautical Twilight 5:36 AM CST 6:30 PM CST
Astronomical Twilight 5:08 AM CST 6:58 PM CST
Moon 6:29 PM CST (2/15) 6:34 AM CST (2/15)
Length of Visible Light 11h 57m
Length of Day
11h 08m
Waxing Gibbous, 99% of the Moon is Illuminated
Feb 15
Waxing Gibbous
Feb 22
Last Quarter
Mar 1
New
Mar 8
First Quarter
Mar 16
Full

Hourly Weather History & Observations

Time (CST) Temp. Windchill Dew Point Humidity Pressure Visibility Wind Dir Wind Speed Gust Speed Precip Events Conditions
12:56 AM 53.1 °F - 42.1 °F 66% 29.92 in 10.0 mi NW 6.9 mph - 0.00 in   Mostly Cloudy
1:56 AM 52.0 °F - 43.0 °F 71% 29.95 in 10.0 mi NW 6.9 mph 19.6 mph N/A   Partly Cloudy
2:56 AM 50.0 °F - 44.1 °F 80% 29.98 in 10.0 mi NNW 12.7 mph 18.4 mph N/A   Clear
3:56 AM 48.9 °F - 41.0 °F 74% 29.99 in 10.0 mi NNW 12.7 mph - N/A   Clear
4:56 AM 46.9 °F - 39.0 °F 74% 30.01 in 10.0 mi NW 8.1 mph - N/A   Clear
5:56 AM 44.1 °F 40.1 °F 37.9 °F 79% 30.04 in 10.0 mi North 6.9 mph - N/A   Clear
6:56 AM 44.1 °F 40.1 °F 36.0 °F 73% 30.07 in 10.0 mi North 6.9 mph - N/A   Clear
7:56 AM 46.0 °F 41.4 °F 36.0 °F 68% 30.10 in 10.0 mi North 9.2 mph 19.6 mph N/A   Clear
8:56 AM 48.0 °F - 36.0 °F 63% 30.14 in 10.0 mi NNW 11.5 mph - N/A   Partly Cloudy
9:56 AM 51.1 °F - 34.0 °F 52% 30.14 in 10.0 mi North 9.2 mph - N/A   Partly Cloudy
10:56 AM 53.1 °F - 34.0 °F 48% 30.17 in 10.0 mi WNW 5.8 mph - N/A   Partly Cloudy
11:56 AM 55.9 °F - 33.1 °F 42% 30.16 in 10.0 mi NNW 9.2 mph - N/A   Partly Cloudy
12:56 PM 59.0 °F - 30.9 °F 35% 30.14 in 10.0 mi North 9.2 mph - N/A   Partly Cloudy
1:56 PM 60.1 °F - 30.9 °F 33% 30.13 in 10.0 mi North 8.1 mph - N/A   Scattered Clouds
2:56 PM 61.0 °F - 30.9 °F 32% 30.13 in 10.0 mi NNW 9.2 mph - N/A   Scattered Clouds
3:56 PM 57.9 °F - 37.9 °F 47% 30.14 in 10.0 mi South 6.9 mph - N/A   Scattered Clouds
4:56 PM 55.0 °F - 39.0 °F 55% 30.13 in 10.0 mi SSE 6.9 mph - N/A   Scattered Clouds
5:29 PM 53.1 °F - 39.0 °F 59% 30.14 in 10.0 mi SSE 5.8 mph - N/A   Mostly Cloudy
5:56 PM 50.0 °F - 41.0 °F 71% 30.14 in 10.0 mi Calm Calm - N/A   Clear
6:56 PM 46.9 °F - 42.1 °F 83% 30.16 in 10.0 mi Calm Calm - N/A   Clear
7:56 PM 43.0 °F - 41.0 °F 93% 30.18 in 10.0 mi Calm Calm - N/A   Clear
8:56 PM 39.9 °F - 39.0 °F 97% 30.17 in 10.0 mi Calm Calm - N/A   Clear
9:56 PM 41.0 °F - 39.9 °F 96% 30.16 in 10.0 mi Calm Calm - 0.00 in   Clear
10:56 PM 41.0 °F 39.0 °F 39.9 °F 96% 30.16 in 10.0 mi WSW 3.5 mph - N/A   Clear
11:56 PM 39.0 °F - 37.0 °F 93% 30.14 in 10.0 mi Calm Calm - 0.00 in   Clear